[[{"header":{"parameterUnit":"m.s-1","parameterCategory":2,"la1":30.2991,"la2":30.254,"lo1":-89.0895,"lo2":-89.0444,"dy":0.0017,"dx":0.0017,"nx":28,"ny":28,"refTime":"2024-04-07T21:00:00:Z","depth":"0","parameterNumber":2,"parameterNumberName":"U-component_of_CURRENTS"},"data":[0,0,0,0,0,0,0,0,0,0,0,0,0,0,0,0,0,0,0,0,0,0,0,0,0,0,0,0,0,0,0,0,0,0,0,0,0,0,0,0,0,0,0,0,0,0,0,0,0,0,0,0,0,0,0,0,0,0,0.1549,0.1549,0,0.1562,0.1562,0.1562,0.1551,0.1551,0.155,0.155,0.1527,0.1527,0.1526,0,0,0,0,0,0,0,0,0,0,0,0,0,0.1539,0.1539,0.1549,0.1549,0.155,0.1562,0.1562,0.1562,0.1551,0.1551,0.155,0.155,0.1527,0.1527,0.1526,0,0,0,0,0,0,0,0,0,0,0,0,0,0.1545,0.1539,0.1549,0.1547,0.1547,0.1562,0.1562,0.1562,0.1551,0.1551,0.155,0.155,0.1527,0.1527,0.1526,0.1533,0,0,0.1525,0.1525,0,0,0,0,0,0,0,0,0.1545,0.1545,0.1547,0.1547,0.1547,0.1556,0.155,0.1551,0.1551,0.1548,0.155,0.155,0.1535,0.1534,0.1535,0.1532,0.1531,0.1525,0.1525,0.1524,0.1524,0,0,0,0,0,0,0,0.1544,0.1545,0.1553,0.1547,0.1547,0.1554,0.1554,0.155,0.1542,0.1548,0.1548,0.1552,0.1534,0.1536,0.1535,0.153,0.1525,0.1524,0.1524,0.1524,0.1557,0.1558,0,0,0,0,0,0,0.1545,0.1544,0.1552,0.1553,0.1547,0.1554,0.1554,0.1552,0.1543,0.1542,0.1552,0.1551,0.1537,0.1535,0.1534,0.1554,0.1524,0.1524,0.1524,0.1556,0.1557,0.1559,0,0,0,0,0,0,0.1545,0.1546,0.1552,0.1551,0.1552,0.1555,0.1553,0.1553,0.1558,0.1546,0.1544,0.1558,0.1536,0.1534,0.1542,0.1552,0.1524,0.1523,0.1555,0.1556,0.1558,0.1585,0,0,0,0,0,0,0.1544,0.1545,0.1545,0.1551,0.1552,0.1564,0.1553,0.1553,0.1562,0.156,0.1551,0.1548,0.1536,0.1543,0.1542,0.1551,0.1523,0.1553,0.1555,0.1557,0.1582,0.1587,0.1591,0,0,0,0,0,0.1544,0.1546,0.1545,0.1546,0.1551,0.1564,0.1566,0.1565,0.1562,0.1567,0.1566,0.1548,0.1556,0.1544,0.1542,0.1551,0.1552,0.1555,0.1557,0.158,0.1586,0.1591,0,0,0,0,0,0,0.1544,0.1545,0.1544,0.1546,0.1556,0.1563,0.1568,0.1571,0.1575,0.1572,0.1561,0.1559,0.157,0.1562,0.1549,0.157,0.1552,0.1554,0.157,0.1576,0.158,0.1589,0.1522,0,0,0,0,0,0.1544,0.1543,0.1551,0.1554,0.1558,0.1565,0.1571,0.1572,0.1578,0.1579,0.1575,0.1574,0.158,0.1579,0.158,0.1589,0.159,0.1597,0.1601,0.1605,0.1613,0.1624,0.163,0.1567,0.1567,0.1567,0,0,0.1546,0.1546,0.1547,0.1554,0.1559,0.1566,0.1567,0.1578,0.1587,0.1575,0.1585,0.1588,0.1587,0.1599,0.1603,0.1593,0.1625,0.1608,0.1611,0.1617,0.1627,0.1633,0.1638,0.1569,0.1569,0.1569,0,0,0.1547,0.155,0.1548,0.1556,0.1566,0.1572,0.1578,0.1589,0.1596,0.161,0.1608,0.1625,0.1623,0.1632,0.1634,0.1667,0.1649,0.1663,0.1689,0.17,0.1705,0.1709,0.1722,0.1727,0.1664,0.1664,0.1664,0,0.1546,0.1547,0.1552,0.1554,0.156,0.1575,0.1579,0.1594,0.1608,0.1617,0.1615,0.1637,0.1641,0.1662,0.1681,0.1676,0.1678,0.1665,0.1705,0.1709,0.1713,0.1724,0.173,0.1666,0.1666,0.1665,0.1665,0,0.1543,0.1549,0.1552,0.1555,0.1563,0.1574,0.1591,0.1608,0.162,0.163,0.1656,0.1672,0.1682,0.1694,0.17,0.1733,0.1723,0.1708,0.1687,0.1721,0.1731,0.1736,0.1668,0.1667,0.1667,0.1667,0,0,0.1519,0.1544,0.1542,0.155,0.1565,0.1573,0.1594,0.1616,0.1634,0.1653,0.1679,0.1708,0.1717,0.1724,0.1734,0.1759,0.1799,0.1752,0.1752,0.1758,0.1824,0.1796,0.1798,0.1785,0.1786,0.1786,0.1821,0,0.1512,0.152,0.1532,0.1545,0.1553,0.1575,0.1593,0.1615,0.1641,0.1672,0.1701,0.1728,0.1726,0.1744,0.1765,0.1796,0.1814,0.1792,0.1796,0.1797,0.1762,0.1804,0.1717,0.1738,0.1825,0.1826,0.1827,0,0.1495,0.1506,0.1513,0.1546,0.155,0.1558,0.159,0.1612,0.1658,0.168,0.1708,0.1733,0.1783,0.1778,0.1825,0.1808,0.1821,0.184,0.1841,0.1809,0.1778,0.1719,0.1744,0.1668,0.1834,0.1834,0.1833,0,0.1466,0.1493,0.15,0.1508,0.1541,0.1549,0.1569,0.1606,0.1623,0.1691,0.1709,0.1758,0.1782,0.1815,0.185,0.1842,0.19,0.1884,0.1866,0.1864,0.1789,0.1779,0.1735,0.1912,0.1911,0.1911,0.1911,0,0.1448,0.1457,0.1489,0.149,0.1499,0.1531,0.1544,0.158,0.1621,0.1641,0.1705,0.1727,0.1793,0.1828,0.1861,0.1879,0.1896,0.1884,0.1875,0.1797,0.1788,0.1717,0.1674,0.1913,0.1912,0.1912,0.1912,0,0.1417,0.1436,0.1446,0.1476,0.1482,0.1486,0.151,0.153,0.1576,0.1608,0.1631,0.1701,0.1755,0.1811,0.1873,0.1876,0.1841,0.1909,0.1819,0.1799,0.1711,0.1673,0.1565,0.1516,0.1905,0.1905,0.1904,0,0.1408,0.1408,0.1421,0.1417,0.1427,0.1438,0.1448,0.1495,0.1514,0.1582,0.1596,0.1664,0.1694,0.1775,0.182,0.1871,0.1798,0.1812,0.1785,0.1705,0.1657,0.1573,0.1534,0.1701,0.1699,0.1697,0.1696,0,0.1389,0.1386,0.1389,0.1377,0.1378,0.1377,0.1397,0.1399,0.1462,0.1483,0.1521,0.1555,0.1642,0.166,0.1731,0.1754,0.1689,0.178,0.1714,0.1513,0.1401,0.1349,0.1684,0.1681,0.1683,0.1684,0.1685,0.1685,0.1373,0.136,0.1354,0.1332,0.1333,0.1315,0.1288,0.1317,0.132,0.1337,0.1418,0.1428,0.1502,0.1592,0.1609,0.1577,0.1577,0.1528,0.1498,0.1428,0.1346,0.1656,0.163,0.1631,0.1632,0.1633,0.1633,0,0.1347,0.1327,0.1313,0.1279,0.1249,0.1261,0.1251,0.1214,0.1189,0.1234,0.1249,0.1271,0.1292,0.1351,0.1375,0.131,0.1249,0.1252,0.1109,0.1096,0.1387,0.1343,0.1231,0.1231,0.1231,0.1231,0.1232,0.1232,0.1334,0.1298,0.1274,0.1198,0.117,0.1107,0.1078,0.1037,0.104,0.1,0.0991,0.1021,0.1078,0.1096,0.1059,0.1046,0.0932,0.0856,0.0868,0.1063,0.1086,0.1108,0.1057,0.0887,0.0887,0.0524,0.0521,0.0519]},{"header":{"parameterUnit":"m.s-1","parameterCategory":2,"la1":30.2991,"la2":30.254,"lo1":-89.0895,"lo2":-89.0444,"dy":0.0017,"dx":0.0017,"nx":28,"ny":28,"refTime":"2024-04-07T21:00:00:Z","depth":"0","parameterNumber":3,"parameterNumberName":"V-component_of_CURRENTS"},"data":[0,0,0,0,0,0,0,0,0,0,0,0,0,0,0,0,0,0,0,0,0,0,0,0,0,0,0,0,0,0,0,0,0,0,0,0,0,0,0,0,0,0,0,0,0,0,0,0,0,0,0,0,0,0,0,0,0,0,0.0032,0.0032,0,-0.0015,-0.0016,-0.0016,-0.0039,-0.0039,-0.0039,-0.0039,-0.0116,-0.0118,-0.012,0,0,0,0,0,0,0,0,0,0,0,0,0,0.0083,0.0083,0.0032,0.0032,0.0031,-0.0015,-0.0016,-0.0016,-0.0039,-0.0039,-0.0039,-0.0039,-0.0115,-0.0118,-0.012,0,0,0,0,0,0,0,0,0,0,0,0,0,0.0051,0.0082,0.0032,0.0014,0.0012,-0.0015,-0.0016,-0.0016,-0.0039,-0.0039,-0.0039,-0.0039,-0.0114,-0.0117,-0.012,-0.0141,0,0,-0.013,-0.0131,0,0,0,0,0,0,0,0,0.0053,0.0049,0.0018,0.0016,0.0013,-0.0021,-0.0026,-0.0059,-0.0039,-0.002,-0.0039,-0.0039,-0.0087,-0.0092,-0.0101,-0.0144,-0.0148,-0.013,-0.0132,-0.0133,-0.0134,0,0,0,0,0,0,0,0.0055,0.0051,0.0013,0.0017,0.0014,0.0002,-0.0002,-0.0032,-0.0054,-0.0022,-0.0023,-0.0028,-0.0088,-0.0098,-0.0103,-0.0149,-0.013,-0.0133,-0.0135,-0.0136,-0.0204,-0.0204,0,0,0,0,0,0,0.0062,0.0053,0.0015,0.0012,0.0034,0.0001,-0.0004,-0.001,-0.0053,-0.0059,-0.0028,-0.0029,-0.0093,-0.0099,-0.0106,-0.0112,-0.0133,-0.0136,-0.0138,-0.0204,-0.0204,-0.0204,0,0,0,0,0,0,0.0064,0.0059,0.0017,0.0032,0.0026,0.0001,-0.0007,-0.0011,-0.0018,-0.0057,-0.0064,-0.0029,-0.0093,-0.0102,-0.0125,-0.0116,-0.0138,-0.0141,-0.0204,-0.0204,-0.0204,-0.0138,0,0,0,0,0,0,0.0065,0.006,0.0057,0.0032,0.0025,0.0008,-0.0007,-0.0012,-0.0021,-0.0022,-0.0061,-0.0068,-0.0093,-0.012,-0.0128,-0.0121,-0.0143,-0.0204,-0.0204,-0.0204,-0.0141,-0.0136,-0.0132,0,0,0,0,0,0.0067,0.0065,0.0058,0.0053,0.0022,0.0008,0.0004,-0.0014,-0.0021,-0.002,-0.0045,-0.0067,-0.0125,-0.0123,-0.0132,-0.0125,-0.0205,-0.0204,-0.0204,-0.0142,-0.0137,-0.0132,0,0,0,0,0,0,0.0086,0.0061,0.0053,0.0043,0.0031,0.0005,0.0001,-0.001,-0.003,-0.0032,-0.0067,-0.0076,-0.0093,-0.0121,-0.0118,-0.0146,-0.0168,-0.017,-0.0118,-0.0113,-0.0109,-0.0087,-0.0146,0,0,0,0,0,0.0089,0.0082,0.0059,0.0054,0.0048,0.0026,0.0018,0.0007,-0.0014,-0.0022,-0.0048,-0.0078,-0.0102,-0.0116,-0.0143,-0.016,-0.0174,-0.0163,-0.0159,-0.0155,-0.0144,-0.0153,-0.0148,-0.0204,-0.0204,-0.0204,0,0,0.0096,0.0082,0.0078,0.0058,0.0046,0.0045,0.0021,0.0014,0.0017,-0.0029,-0.0034,-0.0065,-0.0103,-0.0118,-0.0129,-0.0139,-0.0147,-0.0155,-0.0151,-0.0142,-0.0152,-0.0147,-0.0142,-0.0204,-0.0204,-0.0204,0,0,0.0114,0.0094,0.0099,0.0088,0.0073,0.006,0.0061,0.0039,0.0032,0.0018,-0.0009,-0.0029,-0.0073,-0.0089,-0.0106,-0.0097,-0.0124,-0.0112,-0.0072,-0.0081,-0.0076,-0.0071,-0.0079,-0.0076,-0.0109,-0.0109,-0.0109,0,0.0126,0.0125,0.0099,0.0102,0.0098,0.0071,0.008,0.007,0.0045,0.0044,0.0025,-0.0021,-0.0055,-0.0061,-0.0059,-0.0084,-0.0096,-0.0085,-0.0073,-0.0069,-0.0066,-0.0075,-0.0072,-0.0106,-0.0106,-0.0107,-0.0107,0,0.0149,0.0148,0.015,0.0146,0.0138,0.014,0.0123,0.012,0.0105,0.0093,0.0081,0.0039,0.0014,-0.0002,-0.003,-0.0024,-0.0041,-0.0064,-0.0079,-0.0056,-0.0068,-0.0066,-0.0101,-0.0103,-0.0104,-0.0104,0,0,0.0182,0.017,0.0172,0.0178,0.0161,0.016,0.0167,0.0166,0.0178,0.015,0.0163,0.0119,0.0096,0.0077,0.0042,0.0033,0.0041,-0.0002,-0.0004,0.0002,0.0024,0.0021,0.0022,0.0021,0.0021,0.0022,0.0008,0,0.0212,0.0227,0.0211,0.0232,0.0238,0.0217,0.0228,0.0223,0.021,0.0215,0.0183,0.0174,0.0127,0.0117,0.0102,0.0056,0.0048,0.0047,-0.001,-0.0012,-0.0008,0.0024,0.0079,0.0072,0.0009,0.0009,0.0009,0,0.0245,0.0249,0.0271,0.0276,0.0278,0.0288,0.0298,0.0304,0.0301,0.0291,0.0279,0.0248,0.0233,0.0188,0.0138,0.0139,0.0089,0.0054,0.0052,0.003,-0.0012,0.0035,0.0076,0.004,0.0011,0.0011,0.0011,0,0.0283,0.0293,0.0312,0.0312,0.0313,0.0327,0.0332,0.0331,0.0344,0.0345,0.0354,0.0321,0.0311,0.0254,0.0173,0.0156,0.0121,0.0083,0.0037,0.0035,0.0062,0.0062,0.0073,0.0054,0.0054,0.0054,0.0054,0,0.0318,0.0336,0.0335,0.0345,0.0374,0.0365,0.0397,0.0397,0.0411,0.0439,0.0398,0.0414,0.0327,0.029,0.0208,0.0137,0.0145,0.0058,0.0038,0.0085,0.0087,0.0038,-0.0002,0.0053,0.0053,0.0054,0.0054,0,0.0353,0.0352,0.0375,0.0386,0.0392,0.0413,0.0436,0.0464,0.047,0.0509,0.0515,0.049,0.0447,0.0358,0.0268,0.0188,0.0093,0.0082,0.0144,0.0132,0.0048,0.0009,-0.0003,-0.0061,0.0034,0.0034,0.0034,0,0.0372,0.0388,0.0405,0.0421,0.0427,0.0455,0.048,0.0492,0.0524,0.0558,0.0586,0.0562,0.0556,0.043,0.0303,0.0182,0.0105,0.013,0.0103,0.0068,0.0009,-0.0007,-0.0058,0.0162,0.0163,0.0164,0.0165,0,0.0407,0.0411,0.0424,0.0459,0.0487,0.0515,0.0555,0.0588,0.0616,0.0658,0.0703,0.0706,0.0608,0.0528,0.0363,0.0264,0.0116,0.0141,0.0096,0.0111,0.0105,0.0031,0.014,0.0172,0.0171,0.0171,0.017,0.017,0.0431,0.0447,0.0466,0.0497,0.0527,0.0571,0.0602,0.0655,0.0714,0.078,0.0789,0.0824,0.0727,0.0521,0.0381,0.0201,0.0152,0.0144,0.01,0.0087,0.0039,0.0163,0.0171,0.0171,0.017,0.0169,0.0169,0,0.0462,0.0477,0.0507,0.0539,0.0573,0.0585,0.0647,0.0684,0.0759,0.0846,0.0893,0.091,0.078,0.0606,0.0388,0.0221,0.0128,0.0119,0.012,0.0063,0.0183,0.0196,0.0223,0.0223,0.0223,0.0223,0.0223,0.0223,0.0479,0.0508,0.0517,0.0568,0.0595,0.0637,0.067,0.0734,0.0803,0.0906,0.0973,0.1008,0.0941,0.0596,0.032,0.0211,0.0071,0.0065,-0.0061,0.0047,0.0047,0.0046,0.0051,0.0047,0.0047,-0.0137,-0.0138,-0.014]}],[{"header":{"parameterUnit":"m.s-1","parameterCategory":2,"la1":30.2991,"la2":30.254,"lo1":-89.0895,"lo2":-89.0444,"dy":0.0017,"dx":0.0017,"nx":28,"ny":28,"refTime":"2024-04-07T21:00:00:Z","depth":"2","parameterNumber":2,"parameterNumberName":"U-component_of_CURRENTS"},"data":[0,0,0,0,0,0,0,0,0,0,0,0,0,0,0,0,0,0,0,0,0,0,0,0,0,0,0,0,0,0,0,0,0,0,0,0,0,0,0,0,0,0,0,0,0,0,0,0,0,0,0,0,0,0,0,0,0,0,0.1588,0.1588,0,0.1603,0.1603,0.1603,0.1595,0.1595,0.1594,0.1594,0.1574,0.1574,0.1573,0,0,0,0,0,0,0,0,0,0,0,0,0,0.1578,0.1578,0.1588,0.1588,0.1588,0.1603,0.1603,0.1603,0.1595,0.1595,0.1594,0.1594,0.1574,0.1574,0.1573,0,0,0,0,0,0,0,0,0,0,0,0,0,0.1585,0.1578,0.1588,0.1587,0.1587,0.1603,0.1603,0.1603,0.1595,0.1595,0.1594,0.1594,0.1574,0.1574,0.1573,0.1579,0,0,0.1572,0.1572,0,0,0,0,0,0,0,0,0.1584,0.1585,0.1587,0.1587,0.1588,0.1598,0.1592,0.1594,0.1595,0.1591,0.1594,0.1594,0.158,0.1579,0.1581,0.1578,0.1577,0.1572,0.1572,0.1572,0.1571,0,0,0,0,0,0,0,0.1584,0.1585,0.1592,0.1587,0.1588,0.1595,0.1595,0.1592,0.1586,0.1591,0.1591,0.1595,0.1579,0.1582,0.1581,0.1577,0.1572,0.1572,0.1571,0.1571,0.1607,0.1608,0,0,0,0,0,0,0.1584,0.1584,0.1592,0.1593,0.1586,0.1595,0.1596,0.1594,0.1587,0.1586,0.1595,0.1594,0.1583,0.1581,0.158,0.1601,0.1572,0.1571,0.1571,0.1606,0.1607,0.1608,0,0,0,0,0,0,0.1584,0.1584,0.1591,0.159,0.1592,0.1596,0.1594,0.1594,0.16,0.159,0.1588,0.1602,0.1582,0.158,0.159,0.1599,0.1571,0.1571,0.1604,0.1606,0.1608,0.1633,0,0,0,0,0,0,0.1583,0.1584,0.1583,0.159,0.1592,0.1604,0.1595,0.1595,0.1604,0.1603,0.1595,0.1593,0.1582,0.159,0.1589,0.1598,0.157,0.1603,0.1605,0.1607,0.1631,0.1636,0.164,0,0,0,0,0,0.1583,0.1584,0.1583,0.1584,0.1591,0.1605,0.1607,0.1608,0.1605,0.1611,0.1611,0.1593,0.1604,0.1591,0.1589,0.1598,0.1602,0.1604,0.1607,0.1629,0.1635,0.164,0,0,0,0,0,0,0.1583,0.1584,0.1583,0.1585,0.1597,0.1604,0.161,0.1613,0.1618,0.1616,0.1606,0.1604,0.1616,0.161,0.1596,0.1618,0.1601,0.1603,0.1618,0.1623,0.1628,0.1636,0.157,0,0,0,0,0,0.1582,0.1581,0.159,0.1593,0.1598,0.1606,0.1612,0.1614,0.162,0.1622,0.1619,0.162,0.1627,0.1626,0.1628,0.1638,0.1638,0.1646,0.165,0.1654,0.1661,0.1673,0.1678,0.1617,0.1617,0.1617,0,0,0.1585,0.1585,0.1585,0.1593,0.1599,0.1607,0.1608,0.162,0.1629,0.1619,0.163,0.1634,0.1634,0.1647,0.1652,0.1641,0.1673,0.1657,0.166,0.1666,0.1676,0.1682,0.1687,0.1619,0.1619,0.1618,0,0,0.1586,0.1588,0.1586,0.1595,0.1605,0.1613,0.1618,0.163,0.1639,0.1653,0.1652,0.167,0.1669,0.168,0.1683,0.1716,0.1697,0.1713,0.1737,0.1748,0.1753,0.1757,0.1768,0.1773,0.1713,0.1713,0.1713,0,0.1585,0.1585,0.1591,0.1593,0.16,0.1616,0.1621,0.1637,0.1651,0.166,0.1658,0.1683,0.1688,0.171,0.1729,0.1725,0.1726,0.1713,0.1753,0.1757,0.1761,0.1771,0.1776,0.1715,0.1714,0.1714,0.1714,0,0.1582,0.1588,0.1591,0.1594,0.1604,0.1615,0.1634,0.165,0.1662,0.1673,0.17,0.1717,0.1729,0.174,0.1747,0.178,0.177,0.1756,0.1735,0.1768,0.1777,0.1782,0.1717,0.1716,0.1716,0.1715,0,0,0.1557,0.1583,0.1581,0.159,0.1605,0.1614,0.1636,0.1659,0.1677,0.1697,0.1723,0.1754,0.1762,0.177,0.1781,0.1806,0.1844,0.1798,0.1798,0.1803,0.1867,0.1837,0.1839,0.1831,0.1832,0.1832,0.1863,0,0.155,0.1559,0.1571,0.1585,0.1594,0.1616,0.1635,0.1658,0.1684,0.1716,0.1745,0.1773,0.1772,0.179,0.1811,0.1841,0.1858,0.1838,0.1841,0.1841,0.1804,0.1844,0.1657,0.1666,0.1868,0.1868,0.1869,0,0.1533,0.1544,0.1553,0.1586,0.1591,0.1599,0.1631,0.1654,0.1701,0.1723,0.1751,0.1776,0.1827,0.1822,0.1869,0.1853,0.1864,0.1883,0.1884,0.185,0.182,0.1666,0.1667,0.1877,0.1876,0.1876,0.1875,0,0.1505,0.1532,0.154,0.1547,0.1582,0.1589,0.161,0.1648,0.1665,0.1733,0.175,0.18,0.1824,0.1857,0.1892,0.1884,0.1939,0.1925,0.1904,0.1902,0.1742,0.1724,0.1952,0.1952,0.1952,0.1952,0.1952,0,0.1486,0.1495,0.1528,0.1529,0.1538,0.1571,0.1584,0.162,0.1662,0.1682,0.1746,0.1768,0.1834,0.1869,0.1901,0.1917,0.1935,0.1921,0.1912,0.1747,0.173,0.1909,0.1904,0.1953,0.1953,0.1953,0.1952,0,0.1455,0.1475,0.1484,0.1515,0.1521,0.1526,0.1551,0.1571,0.1617,0.1649,0.1673,0.1742,0.1795,0.185,0.1911,0.1912,0.1949,0.1943,0.1752,0.172,0.1904,0.19,0.1935,0.1934,0.1933,0.1933,0.1932,0,0.1446,0.1446,0.146,0.1457,0.1466,0.1478,0.1489,0.1537,0.1556,0.1623,0.1638,0.1704,0.1732,0.181,0.1831,0.1874,0.1925,0.1735,0.1696,0.1917,0.1905,0.1901,0.1898,0.1492,0.1488,0.1485,0.1482,0,0.1428,0.1424,0.1427,0.1417,0.1418,0.1419,0.1439,0.1441,0.1505,0.1525,0.1563,0.1595,0.1658,0.1618,0.1677,0.168,0.1721,0.1672,0.1938,0.1535,0.1505,0.1491,0.1501,0.1453,0.1456,0.1458,0.1459,0.1461,0.1411,0.1399,0.1393,0.1372,0.1374,0.1357,0.1331,0.1364,0.1369,0.1389,0.1453,0.1448,0.1469,0.1471,0.1443,0.1437,0.1572,0.1509,0.1517,0.1528,0.1482,0.1453,0.1382,0.1384,0.1387,0.1388,0.139,0,0.1387,0.1366,0.1353,0.1319,0.1293,0.1303,0.1295,0.127,0.1251,0.1288,0.1294,0.1191,0.1147,0.1187,0.1124,0.1153,0.1116,0.1113,0.1037,0.1067,0.1093,0.1022,0.0802,0.08,0.0799,0.0797,0,0,0.1374,0.1339,0.1315,0.1243,0.1216,0.1164,0.1136,0.1117,0.1122,0.1091,0.1062,0.1113,0.115,0.0963,0.0936,0.0858,0.0958,0.0822,0.129,0.1229,0.1253,0.1315,0.1239,0,0,0,0,0]},{"header":{"parameterUnit":"m.s-1","parameterCategory":2,"la1":30.2991,"la2":30.254,"lo1":-89.0895,"lo2":-89.0444,"dy":0.0017,"dx":0.0017,"nx":28,"ny":28,"refTime":"2024-04-07T21:00:00:Z","depth":"2","parameterNumber":3,"parameterNumberName":"V-component_of_CURRENTS"},"data":[0,0,0,0,0,0,0,0,0,0,0,0,0,0,0,0,0,0,0,0,0,0,0,0,0,0,0,0,0,0,0,0,0,0,0,0,0,0,0,0,0,0,0,0,0,0,0,0,0,0,0,0,0,0,0,0,0,0,-0.0012,-0.0012,0,-0.0057,-0.0058,-0.0058,-0.0079,-0.0079,-0.0079,-0.0079,-0.0155,-0.0157,-0.0159,0,0,0,0,0,0,0,0,0,0,0,0,0,0.0041,0.004,-0.0012,-0.0012,-0.0013,-0.0057,-0.0058,-0.0058,-0.0079,-0.0079,-0.0079,-0.0079,-0.0155,-0.0157,-0.016,0,0,0,0,0,0,0,0,0,0,0,0,0,0.0009,0.004,-0.0012,-0.0029,-0.0031,-0.0057,-0.0058,-0.0059,-0.0079,-0.0079,-0.0079,-0.0079,-0.0154,-0.0157,-0.016,-0.018,0,0,-0.0169,-0.0171,0,0,0,0,0,0,0,0,0.0011,0.0007,-0.0026,-0.0028,-0.003,-0.0062,-0.0067,-0.0101,-0.0079,-0.0061,-0.0079,-0.0079,-0.0127,-0.0132,-0.0141,-0.0184,-0.0187,-0.017,-0.0172,-0.0173,-0.0174,0,0,0,0,0,0,0,0.0013,0.0009,-0.003,-0.0026,-0.0029,-0.0039,-0.0044,-0.0074,-0.0094,-0.0062,-0.0064,-0.0069,-0.0129,-0.0138,-0.0143,-0.0188,-0.017,-0.0172,-0.0174,-0.0175,-0.0243,-0.0243,0,0,0,0,0,0,0.0019,0.0011,-0.0028,-0.0031,-0.0009,-0.004,-0.0045,-0.0052,-0.0093,-0.0099,-0.0069,-0.007,-0.0132,-0.0139,-0.0146,-0.0152,-0.0173,-0.0176,-0.0178,-0.0243,-0.0243,-0.0243,0,0,0,0,0,0,0.0021,0.0016,-0.0027,-0.0011,-0.0017,-0.0041,-0.0049,-0.0053,-0.0058,-0.0098,-0.0105,-0.0069,-0.0133,-0.0141,-0.0164,-0.0156,-0.0177,-0.018,-0.0244,-0.0243,-0.0243,-0.0178,0,0,0,0,0,0,0.0022,0.0017,0.0014,-0.0011,-0.0018,-0.0034,-0.0049,-0.0054,-0.0061,-0.0063,-0.0101,-0.0108,-0.0133,-0.016,-0.0168,-0.016,-0.0182,-0.0244,-0.0244,-0.0243,-0.018,-0.0176,-0.0172,0,0,0,0,0,0.0024,0.0022,0.0014,0.0009,-0.0021,-0.0034,-0.0038,-0.0055,-0.0061,-0.006,-0.0085,-0.0106,-0.0165,-0.0162,-0.0171,-0.0165,-0.0244,-0.0244,-0.0243,-0.0182,-0.0176,-0.0172,0,0,0,0,0,0,0.0044,0.0018,0.001,-0.0,-0.0012,-0.0037,-0.004,-0.0051,-0.0069,-0.0071,-0.0107,-0.0116,-0.0133,-0.0161,-0.0157,-0.0185,-0.0208,-0.0209,-0.0158,-0.0153,-0.0149,-0.0127,-0.0185,0,0,0,0,0,0.0047,0.0039,0.0016,0.0011,0.0005,-0.0016,-0.0023,-0.0033,-0.0054,-0.0061,-0.0087,-0.0117,-0.0141,-0.0155,-0.0183,-0.0199,-0.0214,-0.0202,-0.0198,-0.0194,-0.0184,-0.0194,-0.019,-0.0243,-0.0243,-0.0243,0,0,0.0055,0.0039,0.0036,0.0015,0.0003,0.0003,-0.002,-0.0027,-0.0023,-0.0068,-0.0074,-0.0104,-0.0143,-0.0158,-0.0168,-0.0179,-0.0188,-0.0194,-0.019,-0.0182,-0.0194,-0.0188,-0.0184,-0.0243,-0.0243,-0.0243,0,0,0.0073,0.0053,0.0056,0.0046,0.0031,0.0018,0.002,-0.0002,-0.0008,-0.0021,-0.0049,-0.0068,-0.0112,-0.0129,-0.0146,-0.0136,-0.0165,-0.0152,-0.0112,-0.0122,-0.0118,-0.0114,-0.0123,-0.0121,-0.0149,-0.0149,-0.0149,0,0.0085,0.0083,0.0057,0.0059,0.0054,0.003,0.0038,0.0029,0.0005,0.0003,-0.0015,-0.0061,-0.0095,-0.0102,-0.01,-0.0124,-0.0137,-0.0125,-0.0115,-0.0111,-0.0108,-0.0119,-0.0117,-0.0146,-0.0146,-0.0147,-0.0147,0,0.0107,0.0105,0.0107,0.0101,0.0094,0.0096,0.0079,0.0078,0.0063,0.0051,0.0039,-0.0003,-0.0028,-0.0043,-0.0071,-0.0066,-0.0083,-0.0106,-0.0121,-0.0098,-0.0112,-0.0111,-0.0141,-0.0142,-0.0143,-0.0144,0,0,0.0138,0.0125,0.0127,0.0133,0.0115,0.0115,0.0122,0.0121,0.0132,0.0106,0.0117,0.0075,0.0053,0.0033,-0.0001,-0.0011,-0.0004,-0.0045,-0.0047,-0.0043,-0.0025,-0.0029,-0.0028,-0.0024,-0.0024,-0.0023,-0.0042,0,0.0167,0.0181,0.0164,0.0184,0.0191,0.017,0.018,0.0175,0.0163,0.0168,0.0136,0.0127,0.0082,0.0072,0.0057,0.0011,0.0001,0.0003,-0.0058,-0.006,-0.0056,-0.0026,-0.0048,-0.0066,-0.0041,-0.0041,-0.0041,0,0.0197,0.0201,0.0222,0.0227,0.0228,0.0238,0.0248,0.0253,0.025,0.0241,0.0229,0.0199,0.0183,0.014,0.0088,0.0091,0.0041,0.0005,0.0003,-0.002,-0.0061,-0.0087,-0.0065,-0.004,-0.004,-0.004,-0.004,0,0.0235,0.0244,0.0262,0.0262,0.0263,0.0275,0.0281,0.028,0.0292,0.0293,0.0301,0.0269,0.0258,0.02,0.012,0.0104,0.0065,0.0029,-0.0019,-0.002,-0.0059,-0.0065,-0.0002,-0.0002,-0.0002,-0.0002,-0.0002,0,0.0267,0.0284,0.0284,0.0294,0.0322,0.0313,0.0344,0.0345,0.0357,0.0384,0.0345,0.0358,0.0273,0.0234,0.0153,0.008,0.0088,0.0002,-0.0019,-0.0038,-0.0041,-0.004,-0.0044,-0.0003,-0.0002,-0.0002,-0.0002,0,0.0301,0.03,0.0323,0.0333,0.0339,0.0361,0.0384,0.041,0.0416,0.0452,0.0458,0.0431,0.0386,0.0298,0.0206,0.0128,0.0052,0.002,0.0006,-0.0015,-0.0036,-0.0036,-0.003,-0.0031,-0.0031,-0.0031,-0.0031,0,0.032,0.0335,0.0352,0.0368,0.0374,0.0403,0.0427,0.0438,0.0469,0.0499,0.0525,0.0498,0.0485,0.0357,0.0213,0.0086,0.0069,-0.0016,-0.005,-0.0014,-0.0036,-0.0036,-0.0037,-0.0083,-0.0083,-0.0084,-0.0084,0,0.0353,0.0358,0.037,0.0406,0.0433,0.0461,0.05,0.0531,0.0557,0.0592,0.0631,0.0627,0.0509,0.037,0.0197,0.0104,0.0003,-0.0028,0.0016,-0.0066,-0.0064,-0.0085,-0.0084,-0.0088,-0.0087,-0.0087,-0.0087,-0.0087,0.0378,0.0392,0.0412,0.0443,0.0472,0.0514,0.0544,0.0577,0.0626,0.0628,0.0665,0.0614,0.0501,0.0241,0.013,-0.0012,-0.0007,-0.0083,-0.0082,-0.0081,-0.0078,-0.0075,-0.01,-0.01,-0.01,-0.01,-0.0099,0,0.0398,0.0423,0.0452,0.0484,0.0504,0.0529,0.0587,0.058,0.062,0.06,0.0599,0.0453,0.0339,0.0213,-0.0002,-0.0099,-0.0117,-0.0135,-0.0143,-0.0139,-0.0136,-0.0135,-0.0173,-0.0174,-0.0174,-0.0174,0,0,0.0412,0.0434,0.0442,0.0486,0.0523,0.0542,0.0572,0.0552,0.0527,0.0457,0.0407,0.0375,0.0302,0.013,0.0015,-0.0088,-0.0099,-0.0113,-0.005,-0.0044,-0.0039,-0.0105,-0.01,0,0,0,0,0]}],[{"header":{"parameterUnit":"m.s-1","parameterCategory":2,"la1":30.2991,"la2":30.254,"lo1":-89.0895,"lo2":-89.0444,"dy":0.0017,"dx":0.0017,"nx":28,"ny":28,"refTime":"2024-04-07T21:00:00:Z","depth":"4","parameterNumber":2,"parameterNumberName":"U-component_of_CURRENTS"},"data":[0,0,0,0,0,0,0,0,0,0,0,0,0,0,0,0,0,0,0,0,0,0,0,0,0,0,0,0,0,0,0,0,0,0,0,0,0,0,0,0,0,0,0,0,0,0,0,0,0,0,0,0,0,0,0,0,0,0,0.0893,0.0892,0,0.0879,0.0879,0.0879,0.0877,0.0877,0.0877,0.0877,0.0894,0.0894,0.0894,0,0,0,0,0,0,0,0,0,0,0,0,0,0.0894,0.0894,0.0893,0.0892,0.0892,0.0879,0.0879,0.0879,0.0877,0.0877,0.0877,0.0877,0.0894,0.0894,0.0894,0,0,0,0,0,0,0,0,0,0,0,0,0,0.0889,0.0894,0.0893,0.0889,0.0889,0.0879,0.0879,0.0879,0.0877,0.0877,0.0877,0.0877,0.0893,0.0894,0.0894,0.0895,0,0,0.0896,0.0896,0,0,0,0,0,0,0,0,0.0889,0.0889,0.089,0.089,0.0889,0.088,0.0886,0.0886,0.0877,0.0882,0.0877,0.0878,0.0891,0.0892,0.0889,0.0896,0.0896,0.0896,0.0896,0.0897,0.0897,0,0,0,0,0,0,0,0.0889,0.0889,0.0888,0.089,0.0889,0.0881,0.0881,0.0885,0.0887,0.0882,0.0881,0.0879,0.0891,0.0889,0.089,0.0897,0.0896,0.0897,0.0897,0.0897,0.0956,0.0957,0,0,0,0,0,0,0.0891,0.089,0.0888,0.0887,0.0889,0.0881,0.088,0.0883,0.0886,0.0886,0.0879,0.0879,0.0888,0.0889,0.089,0.0939,0.0897,0.0897,0.0897,0.0955,0.0956,0.0958,0,0,0,0,0,0,0.0892,0.0892,0.0889,0.0888,0.0887,0.0881,0.0883,0.0883,0.09,0.0884,0.0885,0.0899,0.0888,0.089,0.0905,0.0938,0.0897,0.0898,0.0953,0.0955,0.0957,0.1006,0,0,0,0,0,0,0.0892,0.0892,0.0906,0.0888,0.0887,0.0897,0.0883,0.0882,0.0897,0.0897,0.0901,0.0902,0.0888,0.0904,0.0906,0.0938,0.0898,0.0952,0.0954,0.0957,0.1002,0.1009,0.1015,0,0,0,0,0,0.0892,0.0902,0.0906,0.0907,0.0902,0.0897,0.0897,0.0892,0.0898,0.0909,0.0908,0.0902,0.0921,0.0905,0.0907,0.094,0.0951,0.0954,0.0956,0.1,0.1008,0.1014,0,0,0,0,0,0,0.0907,0.0902,0.0907,0.0915,0.0916,0.0897,0.0908,0.0908,0.0916,0.0925,0.0911,0.0911,0.094,0.0933,0.0916,0.0965,0.0939,0.0942,0.0971,0.0979,0.0985,0.0975,0.0899,0,0,0,0,0,0.0918,0.0928,0.092,0.093,0.0934,0.0929,0.0932,0.0931,0.0929,0.0934,0.0936,0.0942,0.095,0.0958,0.0962,0.0985,0.0983,0.101,0.1016,0.1022,0.1016,0.1041,0.1049,0.0967,0.0967,0.0967,0,0,0.0924,0.0926,0.093,0.0935,0.0937,0.0941,0.0932,0.0944,0.095,0.0935,0.0956,0.0965,0.0961,0.0984,0.0998,0.0984,0.1047,0.1025,0.1029,0.1021,0.1045,0.1053,0.106,0.0969,0.0969,0.0968,0,0,0.0933,0.0949,0.0957,0.0962,0.0972,0.0968,0.0978,0.0979,0.0986,0.1001,0.0998,0.1021,0.1032,0.1034,0.1036,0.1079,0.1078,0.1095,0.1118,0.1144,0.115,0.1156,0.1175,0.1182,0.1098,0.1098,0.1098,0,0.0946,0.0951,0.0959,0.0969,0.0975,0.0984,0.0992,0.0998,0.1004,0.1015,0.1016,0.1046,0.1051,0.1073,0.109,0.1093,0.1106,0.109,0.1151,0.1157,0.1162,0.118,0.1187,0.1101,0.1101,0.11,0.11,0,0.095,0.0965,0.0973,0.0988,0.0998,0.1009,0.1016,0.1037,0.1052,0.1056,0.1091,0.1096,0.1113,0.1129,0.1121,0.1168,0.1165,0.1156,0.1131,0.1173,0.1189,0.1196,0.1105,0.1104,0.1103,0.1102,0,0,0.0952,0.0972,0.0978,0.0988,0.1011,0.1016,0.104,0.1057,0.1079,0.1099,0.1124,0.1148,0.1165,0.1168,0.1176,0.1198,0.1254,0.1199,0.1199,0.1214,0.1315,0.1218,0.1216,0.1262,0.1264,0.1265,0.1316,0,0.0956,0.0972,0.0983,0.1004,0.1011,0.1035,0.1054,0.1077,0.1101,0.1132,0.1149,0.1183,0.1176,0.1204,0.1223,0.1251,0.1272,0.1241,0.1274,0.1275,0.118,0.122,0.1268,0.1321,0.1322,0.1323,0.1324,0,0.0953,0.0965,0.0983,0.101,0.1019,0.1039,0.1081,0.11,0.1144,0.1169,0.1203,0.1222,0.1266,0.1253,0.1306,0.1292,0.1307,0.1318,0.132,0.1212,0.1189,0.1267,0.1335,0.1334,0.1334,0.1333,0.1332,0,0.0936,0.0964,0.0979,0.0989,0.1022,0.1046,0.1074,0.1118,0.1139,0.1206,0.1233,0.1278,0.131,0.1339,0.1358,0.1351,0.1402,0.1396,0.1316,0.131,0.136,0.1353,0.1425,0.1425,0.1425,0.1425,0.1425,0,0.092,0.0935,0.0978,0.0985,0.1014,0.1048,0.1086,0.1124,0.1176,0.12,0.1258,0.1278,0.1336,0.1363,0.1378,0.136,0.1422,0.132,0.1315,0.1381,0.1376,0.1365,0.1357,0.1427,0.1426,0.1426,0.1426,0,0.0887,0.0915,0.0935,0.0984,0.1002,0.1028,0.1084,0.1108,0.1173,0.1209,0.1236,0.1298,0.1342,0.1372,0.1422,0.1375,0.138,0.1356,0.1426,0.1424,0.127,0.1264,0.1284,0.1281,0.1278,0.1276,0.1274,0,0.0863,0.0871,0.0929,0.0946,0.0971,0.1013,0.1037,0.1102,0.1122,0.1202,0.1208,0.1276,0.1307,0.129,0.1341,0.1358,0.1335,0.1327,0.129,0.1261,0.1255,0.1254,0.1252,0.127,0.1269,0.1269,0.1268,0,0.0816,0.0851,0.0872,0.091,0.0942,0.0964,0.1006,0.101,0.1078,0.1143,0.1149,0.1166,0.1201,0.1231,0.1245,0.1254,0.1329,0.13,0.1305,0.1271,0.1245,0.1241,0.1242,0.1259,0.126,0.1261,0.1262,0,0.0788,0.0795,0.0834,0.0859,0.0901,0.0905,0.093,0.0945,0.0969,0.1047,0.1048,0.1118,0.1182,0.1178,0.1196,0.1193,0.1178,0.1132,0.1146,0.1156,0.1089,0.1036,0.0982,0,0,0,0,0,0.075,0.0752,0.0775,0.0799,0.0842,0.0863,0.0903,0.0928,0.0986,0.0958,0.0995,0.1023,0.1042,0.1083,0.1058,0.1159,0.1195,0.1123,0.1151,0.121,0.122,0.1152,0,0,0,0,0,0,0.0722,0.0745,0.0752,0.0747,0.0756,0.0787,0.081,0.0848,0.0831,0.0895,0.0912,0.096,0.1002,0.105,0.104,0.1052,0.1046,0.1168,0.1165,0.1204,0.1213,0.1222,0.1156,0,0,0,0,0]},{"header":{"parameterUnit":"m.s-1","parameterCategory":2,"la1":30.2991,"la2":30.254,"lo1":-89.0895,"lo2":-89.0444,"dy":0.0017,"dx":0.0017,"nx":28,"ny":28,"refTime":"2024-04-07T21:00:00:Z","depth":"4","parameterNumber":3,"parameterNumberName":"V-component_of_CURRENTS"},"data":[0,0,0,0,0,0,0,0,0,0,0,0,0,0,0,0,0,0,0,0,0,0,0,0,0,0,0,0,0,0,0,0,0,0,0,0,0,0,0,0,0,0,0,0,0,0,0,0,0,0,0,0,0,0,0,0,0,0,-0.0024,-0.0024,0,-0.0037,-0.0037,-0.0037,-0.0049,-0.0049,-0.0049,-0.005,-0.0068,-0.0069,-0.0069,0,0,0,0,0,0,0,0,0,0,0,0,0,-0.0014,-0.0014,-0.0024,-0.0024,-0.0024,-0.0037,-0.0037,-0.0037,-0.0049,-0.0049,-0.005,-0.005,-0.0068,-0.0069,-0.0069,0,0,0,0,0,0,0,0,0,0,0,0,0,-0.0022,-0.0014,-0.0024,-0.0032,-0.0033,-0.0037,-0.0037,-0.0037,-0.0049,-0.0049,-0.005,-0.005,-0.0068,-0.0069,-0.0069,-0.0067,0,0,-0.0071,-0.0071,0,0,0,0,0,0,0,0,-0.0021,-0.0022,-0.0031,-0.0031,-0.0032,-0.0042,-0.0041,-0.0048,-0.0049,-0.0042,-0.005,-0.005,-0.006,-0.0061,-0.0063,-0.0068,-0.0069,-0.0071,-0.0071,-0.0071,-0.0071,0,0,0,0,0,0,0,-0.0021,-0.0022,-0.0029,-0.0031,-0.0032,-0.0037,-0.0038,-0.0042,-0.0049,-0.0043,-0.0044,-0.0046,-0.0061,-0.0062,-0.0063,-0.0069,-0.0071,-0.0071,-0.0071,-0.0072,-0.0074,-0.0074,0,0,0,0,0,0,-0.0019,-0.0021,-0.0028,-0.0029,-0.0028,-0.0037,-0.0038,-0.0038,-0.0049,-0.0051,-0.0046,-0.0047,-0.0061,-0.0063,-0.0064,-0.0067,-0.0071,-0.0072,-0.0072,-0.0074,-0.0074,-0.0074,0,0,0,0,0,0,-0.0019,-0.002,-0.0028,-0.0026,-0.0027,-0.0037,-0.0037,-0.0039,-0.0041,-0.0051,-0.0054,-0.0047,-0.0061,-0.0063,-0.0061,-0.0067,-0.0072,-0.0072,-0.0074,-0.0074,-0.0074,-0.0069,0,0,0,0,0,0,-0.0019,-0.0019,-0.0017,-0.0026,-0.0027,-0.0029,-0.0037,-0.0039,-0.0042,-0.0043,-0.0053,-0.0055,-0.0062,-0.006,-0.0062,-0.0068,-0.0073,-0.0075,-0.0074,-0.0074,-0.007,-0.0069,-0.0068,0,0,0,0,0,-0.0018,-0.0013,-0.0017,-0.0018,-0.0024,-0.0028,-0.003,-0.0037,-0.0042,-0.0041,-0.0044,-0.0055,-0.0059,-0.006,-0.0062,-0.0069,-0.0075,-0.0074,-0.0074,-0.007,-0.0069,-0.0068,0,0,0,0,0,0,-0.0005,-0.0014,-0.0018,-0.0016,-0.0022,-0.0031,-0.003,-0.0036,-0.0038,-0.0038,-0.0048,-0.005,-0.0053,-0.0057,-0.0058,-0.0067,-0.007,-0.007,-0.0067,-0.0066,-0.0065,-0.0063,-0.0073,0,0,0,0,0,-0.0002,-0.0002,-0.0011,-0.0009,-0.0011,-0.002,-0.0023,-0.0028,-0.0032,-0.0034,-0.0041,-0.0047,-0.0051,-0.0055,-0.0059,-0.0061,-0.0073,-0.0066,-0.0066,-0.0065,-0.0063,-0.0087,-0.0089,-0.0072,-0.0072,-0.0072,0,0,0.0003,-0.0001,-0.0002,-0.0006,-0.0011,-0.0013,-0.0022,-0.0024,-0.0026,-0.0035,-0.0036,-0.0043,-0.005,-0.0053,-0.0056,-0.0058,-0.0076,-0.0064,-0.0064,-0.0062,-0.0087,-0.0089,-0.009,-0.0071,-0.0071,-0.0072,0,0,0.0008,0.001,0.0007,0.0005,-0.0001,-0.0005,-0.0006,-0.0015,-0.0018,-0.0018,-0.0027,-0.0034,-0.004,-0.0049,-0.0053,-0.0048,-0.007,-0.0052,-0.0049,-0.0072,-0.0074,-0.0076,-0.0093,-0.0097,-0.0053,-0.0053,-0.0053,0,0.0013,0.0011,0.0007,0.0006,0.0007,-0.0002,-0.0001,-0.0005,-0.0012,-0.0012,-0.0017,-0.0031,-0.0039,-0.0047,-0.0046,-0.0048,-0.0063,-0.0054,-0.0072,-0.0074,-0.0076,-0.0094,-0.0097,-0.0053,-0.0053,-0.0053,-0.0053,0,0.0013,0.0015,0.0016,0.0012,0.0014,0.0015,0.001,0.001,0.0005,-0.0001,-0.0009,-0.002,-0.0029,-0.0037,-0.004,-0.0057,-0.0063,-0.0069,-0.0077,-0.0078,-0.0096,-0.01,-0.0053,-0.0053,-0.0053,-0.0053,0,0,0.0011,0.0014,0.0014,0.0018,0.0019,0.0021,0.0024,0.0022,0.0024,0.001,0.0009,-0.0008,-0.0017,-0.0022,-0.0035,-0.0057,-0.0083,-0.0068,-0.0069,-0.0089,-0.0134,-0.0121,-0.0124,-0.0096,-0.0097,-0.0097,-0.0141,0,0.001,0.0014,0.0016,0.0024,0.0028,0.0031,0.0036,0.0036,0.0034,0.0031,0.0011,0.0007,-0.0011,-0.0014,-0.0041,-0.0066,-0.0094,-0.0071,-0.0127,-0.0128,-0.012,-0.0129,-0.0099,-0.0144,-0.0145,-0.0146,-0.0146,0,0.0007,0.0011,0.002,0.0036,0.0038,0.0045,0.0058,0.0061,0.0058,0.0057,0.0043,0.0029,0.0005,-0.0012,-0.0071,-0.0056,-0.0095,-0.0123,-0.0125,-0.0117,-0.0123,-0.0143,-0.0154,-0.0153,-0.0153,-0.0152,-0.0152,0,0.0008,0.0017,0.0027,0.0032,0.0045,0.0055,0.0063,0.0068,0.0078,0.0074,0.0081,0.0045,0.0037,-0.0021,-0.0072,-0.0075,-0.014,-0.015,-0.018,-0.018,-0.0181,-0.0178,-0.0204,-0.0204,-0.0204,-0.0204,-0.0204,0,0.0009,0.0015,0.0031,0.0037,0.0055,0.0064,0.0085,0.0089,0.01,0.0114,0.0095,0.0097,0.0033,-0.0007,-0.0067,-0.0129,-0.0138,-0.0181,-0.0191,-0.0177,-0.0174,-0.0184,-0.0181,-0.0205,-0.0205,-0.0205,-0.0205,0,0.0004,0.0013,0.0028,0.0048,0.0057,0.0071,0.0103,0.0116,0.013,0.0148,0.015,0.0135,0.0089,0.0021,-0.0064,-0.0111,-0.0179,-0.0204,-0.0176,-0.0184,-0.0207,-0.0204,-0.0243,-0.0243,-0.0243,-0.0243,-0.0242,0,-0.0001,0.0007,0.0037,0.0052,0.0062,0.0087,0.0106,0.0127,0.0144,0.017,0.0177,0.0153,0.0131,0.0025,-0.0048,-0.0159,-0.0179,-0.0216,-0.0222,-0.0206,-0.0212,-0.0208,-0.0205,-0.0242,-0.0242,-0.0242,-0.0242,0,-0.0013,0.0003,0.0018,0.005,0.0074,0.0103,0.0131,0.0147,0.0174,0.0192,0.0199,0.0159,0.0113,0.0032,-0.0048,-0.0131,-0.0191,-0.0216,-0.0217,-0.0223,-0.0206,-0.0211,-0.0208,-0.0242,-0.0242,-0.0242,-0.0242,0,-0.002,-0.0011,0.0015,0.0044,0.0073,0.0103,0.0125,0.015,0.017,0.02,0.0201,0.0164,0.0143,0.0046,-0.0029,-0.0102,-0.0128,-0.0162,-0.0167,-0.0168,-0.0131,-0.0098,-0.0112,0,0,0,0,0,-0.0033,-0.0024,0.0005,0.0035,0.0068,0.0082,0.0131,0.0155,0.0185,0.019,0.0198,0.0156,0.0073,0.0043,-0.003,-0.0043,-0.015,-0.0132,-0.0195,-0.0241,-0.0241,-0.021,0,0,0,0,0,0,-0.0044,-0.0026,-0.0006,0.002,0.0037,0.0069,0.0097,0.0126,0.0133,0.0161,0.0119,0.0121,0.0037,0.0102,-0.0041,-0.0059,-0.0111,-0.0164,-0.0166,-0.0241,-0.0241,-0.0241,-0.0209,0,0,0,0,0]}]]